Location: Unspecified
(51.0950°N, 12.9690°E)
Time: 21:16:37
(UTC+00:00)

NOSS 3-2 (C) - Pass Details

Date: 28 October 2021
Orbit: 770 x 1442 km, 63.4° (Epoch: 03 November)

Event Time Altitude Azimuth Distance (km) Brightness Sun altitude
Rises 18:27:42 0° 311° (NW) 3,795 7.5 -25.3°
Reaches altitude 10° 18:30:15 10° 317° (NW) 2,934 6.7 -25.7°
Maximum altitude 18:37:11 54° 34° (NE) 1,460 4.2 -26.8°
Enters shadow 18:38:27 49° 65° (ENE) 1,561 4.2 -27.0°
